This is the latest recevied weather packets stored in our database for station/object DL6DBZ-10. If no packets are shown the sender has not sent any weather packets the latest 10 day(s).
| Time | Temp. | Humidity | Pressure | Rain* | Wind** | Luminosity | Snow |
|---|---|---|---|---|---|---|---|
| 1787629040 | 10° C | 85% | 1021 hPa | - | - | - | - |
| 1787628440 | 10.56° C | 83% | 1021 hPa | - | - | - | - |
| 1787627840 | 10.56° C | 83% | 1021.2 hPa | - | - | - | - |
| 1787627240 | 10° C | 84% | 1021.3 hPa | - | - | - | - |
| 1787626640 | 10.56° C | 84% | 1021.1 hPa | - | - | - | - |
| 1787626047 | 10° C | 85% | 1021.2 hPa | - | - | - | - |
| 1787625447 | 10.56° C | 83% | 1021.3 hPa | - | - | - | - |
| 1787624847 | 10.56° C | 83% | 1021.3 hPa | - | - | - | - |
| 1787624246 | 10.56° C | 84% | 1021.4 hPa | - | - | - | - |
| 1787623646 | 11.11° C | 82% | 1021.4 hPa | - | - | - | - |
| 1787623046 | 11.11° C | 80% | 1021.6 hPa | - | - | - | - |
| 1787622445 | 11.67° C | 79% | 1021.7 hPa | - | - | - | - |
| 1787621845 | 11.67° C | 78% | 1021.8 hPa | - | - | - | - |
| 1787621245 | 11.67° C | 78% | 1021.8 hPa | - | - | - | - |
| 1787620645 | 11.67° C | 78% | 1022 hPa | - | - | - | - |
| 1787620045 | 11.67° C | 77% | 1021.8 hPa | - | - | - | - |
| 1787619445 | 11.67° C | 76% | 1021.8 hPa | - | - | - | - |
| 1787618845 | 12.22° C | 75% | 1021.7 hPa | - | - | - | - |
| 1787618244 | 12.22° C | 74% | 1021.6 hPa | - | - | - | - |
| 1787617644 | 12.22° C | 74% | 1021.7 hPa | - | - | - | - |
| 1787617044 | 12.78° C | 73% | 1021.8 hPa | - | - | - | - |
| 1787616443 | 12.78° C | 72% | 1022 hPa | - | - | - | - |
| 1787615843 | 12.78° C | 72% | 1021.8 hPa | - | - | - | - |
| 1787615243 | 12.78° C | 71% | 1022.1 hPa | - | - | - | - |
| 1787614643 | 12.78° C | 71% | 1022.2 hPa | - | - | - | - |
* Rain since midnight (hover to see other rain measurements)
** Current wind speed in m/s (hover to see current wind gust speed)